Regional Weather Roundup
Issued by NWS

Home | Current Version | Previous Version | Text Only | Print | Product List | Glossary Off
Versions: 1 2 3 4 5 6 7 8 9 10 11 12 13 14 15 16 17 18 19 20 21 22 23 24 25 26 27

000
ASUS45 KTFX 161810
RWRMT
MONTANA REGIONAL WEATHER ROUNDUP
NATIONAL WEATHER SERVICE GREAT FALLS MT
1100 AM MST SAT DEC 16 2017

NOTE: "FAIR" INDICATES FEW OR NO CLOUDS BELOW 12000 FEET WITH NO
SIGNIFICANT WEATHER AND/OR OBSTRUCTIONS TO VISIBILITY.

MTZ001>007-043-161900-
WEST OF THE DIVIDE

CITY           SKY/WX    TMP DP  RH WIND       PRES   REMARKS
KALISPELL      CLOUDY    29  26  89 CALM      30.10R
MISSOULA       CLOUDY    30  28  92 CALM      30.09R
BUTTE          CLOUDY    28  19  69 NW9       29.96R WCI  19
MULLAN PASS    HAZE      20  14  77 VRB5      30.01R VSB 1/4
ANACONDA         N/A     27  25  93 N5        30.00S
DEER LODGE       N/A     28  23  80 NW13      30.03R WCI  18
EUREKA           N/A     27  21  80 MISG      30.14R
HAMILTON         N/A     30  28  93 CALM      30.07S
LIBBY            N/A     32  27  80 CALM      30.14R
PLAINS           N/A     30  26  85 CALM      30.14R
RONAN            N/A     27  25  92 CALM      30.13R
$$

MTZ008-052>055-161900-
SOUTHWEST MONTANA

CITY           SKY/WX    TMP DP  RH WIND       PRES   REMARKS
BOZEMAN        LGT SNOW  31  29  92 W8        29.96R VSB 3/4 WCI  23
DILLON         LGT SNOW  29  26  89 NE3       29.95S FOG
W YELLOWSTONE  PTSUNNY   23  21  93 SW6       29.87S FOG     WCI  16
ENNIS          LGT SNOW  28  25  86 N16G22    29.97R WCI  17
THREE FORKS      N/A     30  29  96 CALM      29.96S
TWIN BRIDGES     N/A     31  19  61 N3        29.95R
$$

MTZ009-010-012-014-046-048-049-054-161900-
EAST SLOPES AND CENTRAL MONTANA

CITY           SKY/WX    TMP DP  RH WIND       PRES   REMARKS
CUT BANK       LGT SNOW  27  27 100 S6        30.00S FOG     WCI  20
GREAT FALLS    CLOUDY    30  26  85 VRB3      30.01R
MALMSTROM AFB  PTSUNNY   30  28  94 S5        30.02R
HELENA         CLOUDY    31  26  82 CALM      29.99R
BOWMANS CRNR   PTSUNNY   26  26 100 E3        29.96R
CHOTEAU          N/A     30  28  93 VRB3      30.02R
FAIRFIELD      PTSUNNY   31  26  81 SE7       30.00R WCI  24
POWER          LGT RAIN  29  26  92 S3        30.00R
RAYNESFORD     LGT SNOW  29  26  91 E5        29.99R
ULM            PTSUNNY   30  28  94 CALM      30.01R
$$

MTZ011-013-016-021-045-047-050-051-161900-
NORTH CENTRAL MONTANA

CITY           SKY/WX    TMP DP  RH WIND       PRES   REMARKS
HAVRE          CLOUDY    30  29  96 SW6       30.03R WCI  24
LEWISTOWN      CLOUDY    31  25  78 CALM      29.97S
N BAR RANCH    PTSUNNY   30  19  64 CALM      29.99S
CHINOOK          N/A     32  30  93 W3        30.03S
DENTON         PTSUNNY   32  26  80 W8        29.97R WCI  25
GEYSER         LGT SNOW  29  26  88 CALM      29.99R
GRASS RANGE    CLOUDY    33  24  70 CALM      29.95S
STANFORD       LGT SNOW  27  26  97 CALM      29.98R FOG
WINIFRED       PTSUNNY   32  29  89 W6        29.99R WCI  26
$$

MTZ017>020-022>027-061-062-161900-
NORTHEAST MONTANA

CITY           SKY/WX    TMP DP  RH WIND       PRES   REMARKS
GLENDIVE       CLOUDY    34  22  61 N12       29.99R WCI  25
JORDAN           N/A     34  28  79 NW7       30.00R WCI  28
SIDNEY         FAIR      35  22  58 NW9       29.98R WCI  28
WOLF POINT     FAIR      28  22  78 W8        30.00R WCI  20
MALTA          CLOUDY    32  30  93 W12       30.01S WCI  23
PLENTYWOOD       N/A     32  21  64 NW10      29.93R WCI  24
POPLAR           N/A     27  19  74 W10       29.99S WCI  17
SCOBEY           N/A     31  17  56 W9        29.93R WCI  23
$$

MTZ028>42-056>058-161900-
SOUTHCENTRAL AND SOUTHEAST MONTANA

CITY           SKY/WX    TMP DP  RH WIND       PRES   REMARKS
BAKER          CLOUDY    32  28  85 NW8       29.97F WCI  25
BILLINGS       LGT SNOW  31  30  96 NE7       29.98S VSB 1   WCI  24
LIVINGSTON     LGT SNOW  31  31 100 E7        29.93S FOG     WCI  24
MILES CITY     PTSUNNY   35  28  75 W9        30.00S WCI  28
BIG TIMBER     FOG       28  28 100 E12       29.97R VSB 1/2 WCI  18
EKALAKA          N/A     31  24  75 W6        29.94R WCI  25
FORSYTH          N/A     34  30  86 W5        30.01S
LAUREL           N/A     30  28  93 NE9       29.99S FOG     WCI  22
ROUNDUP          N/A     32  27  82 CALM      29.91R
$$

REGIONAL REPORTS...DAKOTAS

CITY           SKY/WX    TMP DP  RH WIND       PRES   REMARKS
WILLISTON      FAIR      32  22  66 SW6       29.95S WCI  26
MINOT          FAIR      37  28  70 W15       29.89R WCI  28
DICKINSON      FAIR      32  25  75 W14       29.92S WCI  22
BEACH          FAIR      30  27  86 W7        30.00R WCI  23
CROSBY         FAIR      34  23  64 W12       29.91S WCI  25
TIOGA          FAIR      30  27  86 NW13      29.92S WCI  20
WATFORD CITY   FAIR      32  23  69 NW7       29.95S WCI  26
BISMARCK       PTSUNNY   39  33  79 NW12      29.93R WCI  32
GRAND FORKS    CLOUDY    26  22  84 W7        29.89R WCI  18
FARGO          CLOUDY    29  25  85 S6        29.89S WCI  23
BUFFALO SD       N/A     34  26  72 NW14      29.89R WCI  25
RAPID CITY     CLOUDY    36  32  85 N17       29.95F WCI  26
$$

REGIONAL REPORTS...WYOMING/IDAHO/WASHINGTON

CITY           SKY/WX    TMP DP  RH WIND       PRES   REMARKS
GILLETTE       LGT SNOW  30  27  88 N12       29.94F VSB 3/4 WCI  20
SHERIDAN       SNOW      31  30  96 NE8       29.96F VSB 1/2 WCI  23
BUFFALO WY     LGT SNOW  32  27  81 NE6       29.93S VSB 3/4 WCI  26
CODY           LGT SNOW  32  30  92 NE6       29.88F FOG     WCI  26
YELLOWSTONE LA   N/A     22  19  89 CALM      29.85S
IDAHO FALLS    LGT SNOW  24  21  88 SW8G18    29.98R VSB 3/4 WCI  15
SALMON         CLOUDY    33  23  66 CALM      30.06S
BOISE          FAIR      28  23  81 NW12      30.11S WCI  18
SPOKANE        LGT SNOW  25  24  96 CALM      30.23R VSB 1
$$

REGIONAL REPORTS...ALBERTA

CITY           SKY/WX    TMP DP  RH WIND       PRES   REMARKS
EDMONTON       SUNNY     30  16  55 W17       29.89S WCI  18
CALGARY        MOSUNNY   32   7  34 VRB3      29.96R
LETHBRIDGE     LGT SNOW  30  28  93 SE3       30.02R
MEDICINE HAT   CLOUDY    32  28  86 SW6       30.01R WCI  26
$$

REGIONAL REPORTS...SASKATCHEWAN

CITY           SKY/WX    TMP DP  RH WIND       PRES   REMARKS
SWIFT CURRENT  MOSUNNY   28  18  64 W17G26    29.90S WCI  16
REGINA         MOSUNNY   30  21  69 W15       29.86S WCI  19
SASKATOON      PTSUNNY   30  21  69 W16       29.82S WCI  19
$$




USA.gov is the U.S. government's official web portal to all federal, state and local government web resources and services.